COSMOS 1135

Satellite information

Favourite Embed

Satellite Type and Status

PAYLOADIN ORBIT

Key statistics

Satellite COSMOS 1135 at a glance.

Uptime

16882

Days in orbit

Revolutions

≈ 12.5

Per day

Orbit

LEO

Low Earth Orbit

Inclination

74.0

Latest

Satellite identification and parameters

Extended collection of information and parameters for COSMOS 1135.

Object identification

Identified? True

Debris? False

Object name: COSMOS 1135

International designator: 1979-084F

Object number (NORAD): 11543

Object ID (CCSDS): 11543

Country: COMMONWEALTH OF INDEPENDENT STATES (CIS)

Current information (Y/N): Y

RCS size: MEDIUM

Orbital parameters

Period: 115.468 minutes

Inclination: 74.0255 deg

SMA: 7854.783 km

Apoapsis: 1491.51 km

Periapsis: 1461.786 km

RAAN: 334.2869 deg

Eccentricy: 0.00189209

Argument of periapsis: 156.233 deg

Mean anomaly: 323.8496 deg

Mean motion: 12.47100545 rev/day

Mean motion (dot): 0.00000007 rev/day2

B* drag term: 0.00015705626 1/REarth

Two-line elements (TLE)

Creation date: Dec. 14, 2025, 3:07 a.m.

Reference frame: TEME

Reference center: EARTH

Epoch: Dec. 13, 2025, 9:41 a.m. UTC

TLE line 0: 0 COSMOS 1135

TLE line 1: 1 11543U 79084F 25347.40416499 .00000007 00000-0 15706-3 0 9999

TLE line 2: 2 11543 74.0255 334.2869 0018921 156.2330 323.8496 12.47100545104026

Live tracking on map

Real-time ground track for satellite COSMOS 1135.

In-orbit conjunctions

There are no conjunctions computed for COSMOS 1135, at the moment. Check back to stay up to date, as we update our databases every day.

Go to all conjunctions

Associated space launch

Biological research satellite carrying live organisms

COSMOS 1135 was lifted into orbit during the mission ‘Soyuz U | Bion 5’, on board a Soyuz U space rocket.

The launch took place on Sept. 25, 1979, 3:30 p.m. from 41/1.

For more information about the launch, click the button.

Launch to space Soyuz U | Bion 5
Soyuz U | Bion 5

Agency: N/A

Status: Launch Successful

Launch date: Sept. 25, 1979, 3:30 p.m. UTC

Rocket: Soyuz U

Launch pad: 41/1

Location: Plesetsk Cosmodrome, Russian Federation

...

Latest news about this satellite

There are no fresh news available about this satellite. Check back as we update our databases every day.


Newsletter sign-up

Weekly statistics, charts and insights to help you stay on top of the space industry.